Weather History for Baton Rouge, LA

Change the Weather History Date:

Monday, September 9, 2013

  Actual Average Record
Temperature  
Mean Temperature 81 °F 80 °F  
Max Temperature 91 °F 90 °F 100 °F (1905)
Min Temperature 70 °F 71 °F 55 °F (2011)
Degree Days  
Heating Degree Days 0 0  
Month to date heating degree days 0 0  
Since 1 July heating degree days 0 0  
Cooling Degree Days 16 15  
Month to date cooling degree days 163 146  
Year to date cooling degree days 2131 2307  
Growing Degree Days 30 (Base 50)    
Moisture  
Dew Point 70 °F    
Average Humidity 71    
Maximum Humidity 100    
Minimum Humidity 41    
Precipitation  
Precipitation 0.00 in 0.17 in 1.72 in (2001)
Month to date precipitation 1.86 1.47  
Year to date precipitation 54.52 43.18  
Snow  
Snow 0.00 in - - ()
Month to date snowfall 0.0  
Since 1 July snowfall 0.0  
Since 1 September snowfall 0.0  
Snow Depth 0.00 in    
Sea Level Pressure  
Sea Level Pressure 30.01 in    
Wind  
Wind Speed 4 mph (East)    
Max Wind Speed 13 mph    
Max Gust Speed 17 mph    
Visibility 9 miles    
Events      
T = Trace of Precipitation, MM = Missing Value Source: NWS Daily Summary

Daily Weather History Graph

Daily Weather History Graph

Search for Another Location

Airport:

Trip Planner

Search our weather history database for the weather conditions in past years. The results will help you decide how hot, cold, wet, or windy it might be!

Date:

Astronomy

Sep. 09, 2013 Rise Set
Actual Time 6:45 AM CDT 7:17 PM CDT
Civil Twilight 6:21 AM CDT 7:41 PM CDT
Nautical Twilight 5:53 AM CDT 8:09 PM CDT
Astronomical Twilight 5:24 AM CDT 8:38 PM CDT
Moon 10:46 AM CDT (9/9) 9:56 PM CDT (9/9)
Length of Visible Light 13h 19m
Length of Day
12h 31m
Waxing Crescent, 19% of the Moon is Illuminated
Sep 9
Waxing Crescent
Sep 12
First Quarter
Sep 19
Full
Sep 26
Last Quarter
Oct 4
New

Hourly Weather History & Observations

Time (CDT) Temp. Heat Index Dew Point Humidity Pressure Visibility Wind Dir Wind Speed Gust Speed Precip Events Conditions
12:53 AM 72.0 °F - 70.0 °F 93% 29.97 in 7.0 mi Calm Calm - N/A   Clear
1:53 AM 71.1 °F - 70.0 °F 96% 29.97 in 7.0 mi Calm Calm - N/A   Clear
2:53 AM 71.1 °F - 70.0 °F 96% 29.96 in 7.0 mi Calm Calm - N/A   Clear
3:53 AM 70.0 °F - 69.1 °F 97% 29.97 in 6.0 mi Calm Calm - N/A   Clear
4:53 AM 70.0 °F - 69.1 °F 97% 29.98 in 7.0 mi Calm Calm - N/A   Clear
5:53 AM 70.0 °F - 69.1 °F 97% 29.99 in 6.0 mi Calm Calm - N/A   Clear
6:53 AM 70.0 °F - 69.1 °F 97% 30.01 in 6.0 mi Calm Calm - N/A   Clear
7:53 AM 72.0 °F - 70.0 °F 93% 30.02 in 7.0 mi NE 3.5 mph - N/A   Clear
8:53 AM 77.0 °F - 72.0 °F 84% 30.04 in 8.0 mi NE 4.6 mph - N/A   Clear
9:53 AM 81.0 °F 86.2 °F 73.9 °F 79% 30.05 in 10.0 mi East 3.5 mph - N/A   Clear
10:53 AM 84.9 °F 91.4 °F 73.0 °F 67% 30.05 in 10.0 mi NE 5.8 mph - N/A   Partly Cloudy
11:53 AM 87.1 °F 94.5 °F 73.0 °F 63% 30.05 in 10.0 mi ESE 4.6 mph - N/A   Scattered Clouds
12:53 PM 88.0 °F 94.7 °F 72.0 °F 59% 30.04 in 10.0 mi East 5.8 mph - N/A   Scattered Clouds
1:53 PM 88.0 °F 91.4 °F 68.0 °F 51% 30.02 in 10.0 mi East 8.1 mph - N/A   Scattered Clouds
2:53 PM 91.0 °F 95.2 °F 68.0 °F 47% 30.00 in 10.0 mi SE 11.5 mph - N/A   Scattered Clouds
3:53 PM 91.0 °F 93.0 °F 64.9 °F 42% 29.99 in 10.0 mi ESE 10.4 mph - N/A   Scattered Clouds
4:53 PM 90.0 °F 91.7 °F 64.9 °F 43% 29.98 in 10.0 mi East 9.2 mph - N/A   Clear
5:53 PM 89.1 °F 92.9 °F 68.0 °F 50% 29.99 in 10.0 mi SE 6.9 mph - N/A   Scattered Clouds
6:53 PM 84.9 °F 89.4 °F 70.0 °F 61% 29.99 in 10.0 mi SE 5.8 mph - N/A   Scattered Clouds
7:53 PM 82.0 °F 86.7 °F 72.0 °F 71% 30.00 in 10.0 mi ESE 3.5 mph - N/A   Clear
8:53 PM 79.0 °F - 72.0 °F 79% 30.01 in 10.0 mi ESE 4.6 mph - N/A   Clear
9:53 PM 77.0 °F - 73.0 °F 88% 30.02 in 10.0 mi ENE 3.5 mph - N/A   Clear
10:53 PM 77.0 °F - 73.0 °F 88% 30.02 in 10.0 mi Calm Calm - N/A   Clear
11:53 PM 75.9 °F - 72.0 °F 87% 30.01 in 10.0 mi ENE 3.5 mph - N/A   Clear